• In Uzbekistan
  • List of Countries
  • For 7 days
  • Water Temperature
  • Satellite Maps
  • Weather Map
  • Weather Widgets
  • user-avatar
    Login

    Hourly Weather Durres

    Today, 27 July, Thursday

    Time Temperature Precipitation Wind Pressure Humidity
    00:00 +21°C° 0 mm 1 mps 754 mmHg 82%
    01:00 +20°C° 0 mm 2 mps 754 mmHg 83%
    02:00 +19°C° 0 mm 2 mps 754 mmHg 83%
    03:00 +19°C° 0 mm 2 mps 754 mmHg 84%
    04:00 +19°C° 0 mm 2 mps 754 mmHg 84%
    05:00 +20°C° 0.1 mm 2 mps 754 mmHg 77%
    06:00 +23°C° 0.1 mm 2 mps 754 mmHg 71%
    07:00 +25°C° 0.1 mm 2 mps 755 mmHg 64%
    08:00 +26°C° 0.2 mm 2 mps 755 mmHg 56%
    09:00 +28°C° 0.2 mm 2 mps 755 mmHg 48%
    10:00 +30°C° 0.2 mm 3 mps 755 mmHg 40%
    11:00 +30°C° 0 mm 4 mps 755 mmHg 39%
    12:00 +32°C° 0 mm 5 mps 755 mmHg 38%
    13:00 +32°C° 0 mm 6 mps 755 mmHg 37%
    14:00 +32°C° 0 mm 6 mps 755 mmHg 39%
    15:00 +30°C° 0 mm 6 mps 755 mmHg 41%
    16:00 +30°C° 0 mm 6 mps 755 mmHg 43%
    17:00 +28°C° 0 mm 5 mps 755 mmHg 51%
    18:00 +26°C° 0 mm 5 mps 755 mmHg 59%
    19:00 +23°C° 0 mm 4 mps 756 mmHg 67%
    20:00 +23°C° 0 mm 4 mps 756 mmHg 71%
    21:00 +22°C° 0 mm 3 mps 757 mmHg 75%
    22:00 +21°C° 0 mm 3 mps 757 mmHg 79%
    23:00 +21°C° 0.1 mm 3 mps 757 mmHg 78%

    Tomorrow, 28 July, Friday

    Time Temperature Precipitation Wind Pressure Humidity
    00:00 +20°C° 0.1 mm 3 mps 757 mmHg 77%
    01:00 +20°C° 0.1 mm 2 mps 757 mmHg 76%
    02:00 +20°C° 0 mm 2 mps 758 mmHg 75%
    03:00 +20°C° 0 mm 2 mps 758 mmHg 74%
    04:00 +19°C° 0 mm 2 mps 758 mmHg 73%
    05:00 +21°C° 0 mm 2 mps 758 mmHg 66%
    06:00 +24°C° 0 mm 2 mps 758 mmHg 59%
    07:00 +26°C° 0 mm 2 mps 759 mmHg 51%
    08:00 +28°C° 0 mm 2 mps 759 mmHg 45%
    09:00 +30°C° 0 mm 2 mps 759 mmHg 39%
    10:00 +32°C° 0 mm 2 mps 759 mmHg 33%
    11:00 +34°C° 0 mm 3 mps 759 mmHg 31%
    12:00 +34°C° 0 mm 3 mps 759 mmHg 29%
    13:00 +35°C° 0 mm 4 mps 759 mmHg 27%
    14:00 +35°C° 0 mm 4 mps 759 mmHg 28%
    15:00 +34°C° 0 mm 4 mps 759 mmHg 30%
    16:00 +34°C° 0 mm 4 mps 758 mmHg 32%
    17:00 +30°C° 0 mm 3 mps 759 mmHg 40%
    18:00 +28°C° 0 mm 3 mps 759 mmHg 48%
    19:00 +26°C° 0 mm 2 mps 760 mmHg 56%
    20:00 +25°C° 0 mm 2 mps 760 mmHg 57%
    21:00 +25°C° 0 mm 1 mps 760 mmHg 57%
    22:00 +24°C° 0 mm 1 mps 761 mmHg 58%
    23:00 +24°C° 0 mm 1 mps 761 mmHg 57%

    Day after tomorrow, 29 July, Saturday

    Time Temperature Precipitation Wind Pressure Humidity
    00:00 +24°C° 0 mm 1 mps 761 mmHg 56%
    01:00 +24°C° 0 mm 1 mps 761 mmHg 55%
    02:00 +24°C° 0 mm 1 mps 761 mmHg 56%
    03:00 +23°C° 0 mm 1 mps 761 mmHg 56%
    04:00 +23°C° 0 mm 2 mps 761 mmHg 56%
    05:00 +25°C° 0 mm 2 mps 762 mmHg 52%
    06:00 +27°C° 0 mm 2 mps 762 mmHg 47%
    07:00 +29°C° 0 mm 2 mps 762 mmHg 43%
    08:00 +32°C° 0 mm 2 mps 762 mmHg 38%
    09:00 +35°C° 0 mm 2 mps 762 mmHg 33%
    10:00 +38°C° 0 mm 2 mps 762 mmHg 28%
    11:00 +39°C° 0 mm 3 mps 762 mmHg 26%
    12:00 +39°C° 0 mm 3 mps 762 mmHg 25%
    13:00 +41°C° 0 mm 4 mps 762 mmHg 23%
    14:00 +40°C° 0 mm 4 mps 761 mmHg 25%
    15:00 +40°C° 0 mm 4 mps 761 mmHg 27%
    16:00 +38°C° 0 mm 4 mps 761 mmHg 29%
    17:00 +35°C° 0 mm 3 mps 761 mmHg 36%
    18:00 +31°C° 0 mm 3 mps 761 mmHg 43%
    19:00 +29°C° 0 mm 2 mps 761 mmHg 51%
    20:00 +28°C° 0 mm 1 mps 762 mmHg 51%
    21:00 +28°C° 0 mm 1 mps 762 mmHg 52%
    22:00 +27°C° 0 mm 1 mps 762 mmHg 52%
    23:00 +27°C° 0 mm 1 mps 762 mmHg 51%

    30 July, Sunday

    Time Temperature Precipitation Wind Pressure Humidity
    00:00 +27°C° 0 mm 1 mps 762 mmHg 51%
    01:00 +27°C° 0 mm 1 mps 762 mmHg 50%
    02:00 +26°C° 0 mm 1 mps 762 mmHg 49%
    03:00 +26°C° 0 mm 1 mps 762 mmHg 48%
    04:00 +26°C° 0 mm 1 mps 762 mmHg 47%
    05:00 +28°C° 0 mm 1 mps 762 mmHg 43%
    06:00 +30°C° 0 mm 1 mps 762 mmHg 40%
    07:00 +32°C° 0 mm 1 mps 762 mmHg 36%
    08:00 +34°C° 0 mm 1 mps 761 mmHg 32%
    09:00 +36°C° 0 mm 1 mps 761 mmHg 28%
    10:00 +40°C° 0 mm 1 mps 761 mmHg 24%
    11:00 +40°C° 0 mm 2 mps 761 mmHg 24%
    12:00 +40°C° 0 mm 3 mps 761 mmHg 23%
    13:00 +42°C° 0 mm 3 mps 760 mmHg 23%
    14:00 +40°C° 0 mm 3 mps 760 mmHg 25%
    15:00 +39°C° 0 mm 3 mps 760 mmHg 26%
    16:00 +39°C° 0 mm 3 mps 759 mmHg 27%
    17:00 +36°C° 0 mm 3 mps 760 mmHg 34%
    18:00 +32°C° 0 mm 2 mps 760 mmHg 40%
    19:00 +30°C° 0 mm 2 mps 760 mmHg 46%
    20:00 +29°C° 0 mm 2 mps 760 mmHg 47%
    21:00 +29°C° 0 mm 1 mps 760 mmHg 48%
    22:00 +28°C° 0 mm 1 mps 761 mmHg 49%
    23:00 +28°C° 0 mm 1 mps 760 mmHg 49%

    31 July, Monday

    Time Temperature Precipitation Wind Pressure Humidity
    00:00 +28°C° 0 mm 1 mps 760 mmHg 49%
    01:00 +27°C° 0 mm 1 mps 760 mmHg 49%
    02:00 +27°C° 0 mm 1 mps 760 mmHg 49%
    03:00 +27°C° 0 mm 1 mps 760 mmHg 50%
    04:00 +27°C° 0 mm 1 mps 760 mmHg 50%
    05:00 +29°C° 0 mm 1 mps 760 mmHg 47%
    06:00 +31°C° 0 mm 1 mps 760 mmHg 43%
    07:00 +34°C° 0 mm 2 mps 760 mmHg 39%
    08:00 +36°C° 0 mm 2 mps 760 mmHg 34%
    09:00 +38°C° 0 mm 2 mps 760 mmHg 30%
    10:00 +40°C° 0 mm 3 mps 760 mmHg 26%
    11:00 +42°C° 0 mm 3 mps 760 mmHg 25%
    12:00 +42°C° 0 mm 4 mps 759 mmHg 24%
    13:00 +43°C° 0 mm 5 mps 759 mmHg 23%
    14:00 +42°C° 0 mm 5 mps 759 mmHg 25%
    15:00 +41°C° 0 mm 6 mps 759 mmHg 26%
    16:00 +40°C° 0 mm 6 mps 759 mmHg 28%
    17:00 +37°C° 0 mm 5 mps 759 mmHg 34%
    18:00 +35°C° 0 mm 5 mps 759 mmHg 39%
    19:00 +32°C° 0 mm 4 mps 759 mmHg 44%
    20:00 +31°C° 0 mm 3 mps 759 mmHg 45%
    21:00 +30°C° 0 mm 3 mps 760 mmHg 46%
    22:00 +29°C° 0 mm 2 mps 760 mmHg 46%
    23:00 +29°C° 0 mm 2 mps 760 mmHg 46%

    1 August, Tuesday

    Time Temperature Precipitation Wind Pressure Humidity
    00:00 +29°C° 0 mm 2 mps 760 mmHg 46%
    01:00 +29°C° 0 mm 1 mps 760 mmHg 45%
    02:00 +28°C° 0 mm 1 mps 760 mmHg 46%
    03:00 +28°C° 0 mm 1 mps 760 mmHg 46%
    04:00 +28°C° 0 mm 1 mps 760 mmHg 47%
    05:00 +29°C° 0 mm 1 mps 760 mmHg 44%
    06:00 +31°C° 0 mm 1 mps 760 mmHg 41%
    07:00 +33°C° 0 mm 1 mps 760 mmHg 38%
    08:00 +35°C° 0 mm 1 mps 760 mmHg 34%
    09:00 +39°C° 0 mm 1 mps 760 mmHg 30%
    10:00 +41°C° 0 mm 1 mps 760 mmHg 26%
    11:00 +42°C° 0 mm 2 mps 760 mmHg 25%
    12:00 +43°C° 0 mm 3 mps 760 mmHg 24%
    13:00 +43°C° 0 mm 4 mps 759 mmHg 22%
    14:00 +42°C° 0 mm 4 mps 759 mmHg 24%
    15:00 +42°C° 0 mm 4 mps 759 mmHg 26%
    16:00 +41°C° 0 mm 4 mps 759 mmHg 28%
    17:00 +37°C° 0 mm 4 mps 759 mmHg 34%
    18:00 +35°C° 0 mm 3 mps 759 mmHg 40%
    19:00 +31°C° 0 mm 2 mps 759 mmHg 46%
    20:00 +30°C° 0 mm 2 mps 759 mmHg 46%
    21:00 +30°C° 0 mm 1 mps 759 mmHg 47%
    22:00 +29°C° 0 mm 1 mps 760 mmHg 47%
    23:00 +29°C° 0 mm 1 mps 759 mmHg 47%
    Show more